Location: ?
(35.4554°N, 139.3092°E)
Time: 21:01:46
(UTC+00:00)

Resurs 01 Rocket - Pass Details

Date: 21 April 2021
Orbit: 634 x 644 km, 97.9° (Epoch: 10 May)

Event Time Altitude Azimuth Distance (km) Brightness Sun altitude
Exits shadow 12:15:02 26° 270° (W) 1,270 3.5 -31.2°
Drops below altitude 10° 12:18:29 10° 321° (NW) 2,045 5.1 -31.7°
Sets 12:21:00 0° 334° (NNW) 2,959 6.1 -32.1°
